Regional Weather Roundup
Issued by NWS

Home | Current Version | Previous Version | Text Only | Print | Product List | Glossary Off
Versions: 1 2 3 4 5 6 7 8 9 10 11 12 13 14 15 16 17 18 19 20 21 22 23 24 25 26 27 28 29 30 31 32 33 34 35 36 37 38 39 40 41 42 43 44 45 46 47 48 49 50

000
ASUS43 KOAX 291210
RWRNE

WEATHER ROUNDUP FOR NEBRASKA
NATIONAL WEATHER SERVICE OMAHA NE
700 AM CDT FRI JUL 29 2016

NOTES: SATELLITE DATA IS BEING USED TO AUGMENT CLOUD COVER ABOVE
       12000 FEET.
       "FAIR" INDICATES FEW OR NO CLOUDS BELOW 12,000 FEET WITH NO
       SIGNIFICANT WEATHER AND/OR OBSTRUCTIONS TO VISIBILITY.

  * THESE STATIONS DO NOT REPORT WEATHER SUCH AS RAIN...SNOW OR FOG.

NEZ001>004-019>022-054>056-291300-
NEBRASKA PANHANDLE

CITY           SKY/WX    TMP DP  RH WIND       PRES   REMARKS
SCOTTSBLUFF    CLEAR     58  56  93 CALM      30.15F
6HR MIN TEMP:  58; 6HR MAX TEMP:  64;

ALLIANCE       FOG       51  51 100 CALM      30.14S VSB 3/4
6HR MIN TEMP:  51; 6HR MAX TEMP:  60;

CHADRON        CLEAR     55  53  93 CALM      30.13S
6HR MIN TEMP:  54; 6HR MAX TEMP:  61;

KIMBALL        PTCLDY    55  55 100 W6        30.19S
SIDNEY         CLEAR     55  54  96 SW3       30.17F
6HR MIN TEMP:  55; 6HR MAX TEMP:  64;

$$

NEZ057>060-069>072-079>082-291300-
SOUTHWEST NEBRASKA

CITY           SKY/WX    TMP DP  RH WIND       PRES   REMARKS
NORTH PLATTE   FOG       60  58  92 CALM      30.11S VSB 1/4
6HR MIN TEMP:  56; 6HR MAX TEMP:  60;

IMPERIAL       CLEAR     60  58  92 NE5       30.12S
6HR MIN TEMP:  60; 6HR MAX TEMP:  65;

LEXINGTON      PTCLDY    59  58  95 NW3       30.10R FOG
MCCOOK         MOCLDY    58  56  93 SE3       30.10R
6HR MIN TEMP:  57; 6HR MAX TEMP:  63;

OGALLALA       CLEAR     59  57  93 CALM      30.12S FOG
$$

NEZ005>010-023>029-035>040-094-291300-
NORTH CENTRAL NEBRASKA

CITY           SKY/WX    TMP DP  RH WIND       PRES   REMARKS
AINSWORTH      RAIN      61  61 100 NE6       30.12R
BROKEN BOW     FOG       59  59 100 NW3       30.11R VSB 1/4
6HR MIN TEMP:  57; 6HR MAX TEMP:  63;

O`NEILL        CLOUDY    64  62  94 CALM      30.09S
ORD            CLOUDY    63  61  93 N3        30.08R
6HR MIN TEMP:  61; 6HR MAX TEMP:  68;

THEDFORD       CLOUDY    61  60  98 NE3       30.14R
$$

NEZ041-046>049-061>064-073>077-083>087-291300-
SOUTH CENTRAL NEBRASKA

CITY           SKY/WX    TMP DP  RH WIND       PRES   REMARKS
GRAND ISLAND   MOCLDY    64  62  93 N5        30.07R
6HR MIN TEMP:  63; 6HR MAX TEMP:  69;

AURORA         CLOUDY    64  64  99 CALM      30.06R
HASTINGS       CLOUDY    67  64  90 CALM      30.08R
6HR MIN TEMP:  64; 6HR MAX TEMP:  67; 6HR PCP: TRACE;

HEBRON         MOCLDY    63  61  95 CALM      30.05R
HOLDREGE       CLOUDY    63  61  94 CALM      30.08R
KEARNEY *      CLEAR     63   7  11 NW6       30.09R
YORK           CLOUDY    64  64 100 CALM      30.06R
$$

NEZ011>018-030>034-042>045-291300-
NORTHEAST NEBRASKA

CITY           SKY/WX    TMP DP  RH WIND       PRES   REMARKS
NORFOLK        CLOUDY    65  60  84 N6        30.07R
6HR MIN TEMP:  65; 6HR MAX TEMP:  68;

ALBION         CLOUDY    64  62  93 N7        30.08R
BLAIR          CLOUDY    66  64  93 N8        30.03S
FREMONT        LGT RAIN  67  64  90 N5        30.05R
TEKAMAH        CLOUDY    64  62  93 N7        30.04R
6HR MIN TEMP:  64; 6HR MAX TEMP:  67;

WAYNE          CLOUDY    62  61  96 CALM      30.08R
$$

NEZ050>053-065>068-078-088>093-291300-
SOUTHEAST NEBRASKA

CITY           SKY/WX    TMP DP  RH WIND       PRES   REMARKS
LINCOLN        MOCLDY    68  64  87 CALM      30.05R
6HR MIN TEMP:  66; 6HR MAX TEMP:  72; 6HR PCP: TRACE;

OMAHA EPPLEY   CLOUDY    67  63  87 N8        30.02R
6HR MIN TEMP:  67; 6HR MAX TEMP:  70; 6HR PCP: TRACE;

BEATRICE       CLOUDY    64  62  93 CALM      30.04R
FALLS CITY     PTCLDY    68  66  93 CALM      30.03R
6HR MIN TEMP:  66; 6HR MAX TEMP:  71;

NEBRASKA CITY  CLOUDY    67  67 100 CALM      30.04R
PLATTSMOUTH    CLOUDY    66  65  95 CALM      30.04R
$$

NEZ044-045-051>053-067-291300-
OMAHA AREA

CITY           SKY/WX    TMP DP  RH WIND       PRES   REMARKS
OMAHA EPPLEY   CLOUDY    67  63  87 N8        30.02R
6HR MIN TEMP:  67; 6HR MAX TEMP:  70; 6HR PCP: TRACE;

BLAIR          CLOUDY    66  64  93 N8        30.03S
FREMONT        LGT RAIN  67  64  90 N5        30.05R
MILLARD        CLOUDY    68  65  89 CALM      30.02R
OFFUTT AFB     MOCLDY    67  65  93 N5        30.02R
PLATTSMOUTH    CLOUDY    66  65  95 CALM      30.04R
WAHOO          FAIR      67  65  91 N8        30.02S
$$



USA.gov is the U.S. government's official web portal to all federal, state and local government web resources and services.